Location: Raleigh
(35.7720°N, 78.6390°W)
Time: 18:26:52
(UTC-04:00)

JAS-2 - Visible Passes

Search period start: 22 October 2014 00:00
Search period end: 01 November 2014 00:00
Orbit: 801 x 1321 km, 98.5° (Epoch: 22 October)

Date Brightness Start Highest point End Pass type
(mag) Time Alt. Az. Time Alt. Az. Time Alt. Az.
22 Oct 11.3 06:11:36 10° NNE 06:19:01 46° E 06:26:24 10° S visible
22 Oct 13.0 19:56:18 10° W 19:57:08 10° W 19:57:59 10° WNW visible
23 Oct 12.7 05:18:36 10° NE 05:23:36 18° E 05:28:32 10° SE visible
23 Oct 10.2 07:01:23 10° N 07:09:12 82° WNW 07:17:00 10° SSW visible
23 Oct 11.4 18:56:10 10° SSW 19:01:20 35° W 19:07:08 10° NNW visible
24 Oct 11.4 06:06:51 10° NNE 06:14:13 43° E 06:21:29 10° SSE visible
24 Oct 12.9 19:50:02 10° WSW 19:52:10 12° W 19:54:22 10° WNW visible
25 Oct 12.8 05:14:05 10° NE 05:18:45 17° E 05:23:21 10° SE visible
25 Oct 10.2 06:56:35 10° NNE 07:04:27 87° WNW 07:12:12 10° SSW visible
25 Oct 11.3 18:51:01 10° SSW 18:56:24 38° W 19:02:27 10° NNW visible
26 Oct 11.5 06:02:08 10° NNE 06:09:26 41° E 06:16:33 10° SSE visible
26 Oct 12.8 19:44:20 10° WSW 19:47:11 14° W 19:50:12 10° WNW visible
27 Oct 12.8 05:09:38 10° NE 05:13:54 15° E 05:18:05 10° ESE visible
27 Oct 10.2 06:51:47 10° NNE 06:59:41 89° ESE 07:07:23 10° SSW visible
27 Oct 11.1 18:45:54 10° SSW 18:51:28 42° W 18:57:46 10° NNW visible
28 Oct 11.6 05:57:25 10° NNE 06:04:37 38° E 06:11:35 10° SSE visible
28 Oct 12.7 19:38:48 10° WSW 19:42:13 15° W 19:45:52 10° NW visible
29 Oct 12.9 05:05:15 10° ENE 05:09:02 14° E 05:12:44 10° ESE visible
29 Oct 10.3 06:47:00 10° NNE 06:54:56 85° ESE 07:02:33 10° SSW visible
29 Oct 11.0 18:40:48 10° S 18:46:32 46° W 18:53:04 10° NNW visible
30 Oct 11.7 05:52:44 10° NNE 05:59:49 36° E 06:06:36 10° SSE visible
30 Oct 12.6 19:33:22 10° SW 19:37:16 17° W 19:41:27 10° NW visible
31 Oct 12.9 05:00:58 10° ENE 05:04:09 13° E 05:07:17 10° ESE visible
31 Oct 10.3 06:42:14 10° NNE 06:50:09 80° ESE 06:57:42 10° S visible
31 Oct 10.8 18:35:43 10° S 18:41:38 50° W 18:48:22 10° NNW visible
